Time,TemperatureF,DewpointF,PressureIn,WindDirection,WindDirectionDegrees,WindSpeedMPH,WindSpeedGustMPH,Humidity,HourlyPrecipIn,Conditions,Clouds,dailyrainin,SolarRadiationWatts/m^2,SoftwareType,DateUTC
2013-03-05 00:02:00,33.0,24.0,-100.00,SE,131,1.0,3.0,68,0.00,,,0.00,0.000000,,2013-03-05 05:02:00,
2013-03-05 00:32:00,32.0,24.0,-100.00,SSE,149,1.0,5.0,73,0.00,,,0.00,0.000000,,2013-03-05 05:32:00,
2013-03-05 00:42:00,32.0,24.0,-100.00,SSE,149,1.0,5.0,73,0.00,,,0.00,0.000000,,2013-03-05 05:42:00,
2013-03-05 00:52:00,32.0,24.0,-100.00,SSE,149,1.0,5.0,73,0.00,,,0.00,0.000000,,2013-03-05 05:52:00,
2013-03-05 01:01:00,32.0,24.0,-100.00,SSE,149,1.0,5.0,73,0.00,,,0.00,0.000000,,2013-03-05 06:01:00,
2013-03-05 01:32:00,33.0,26.0,-100.00,WNW,288,0.0,2.0,74,0.00,,,0.00,0.000000,,2013-03-05 06:32:00,
2013-03-05 01:42:00,33.0,26.0,-100.00,WNW,288,0.0,2.0,74,0.00,,,0.00,0.000000,,2013-03-05 06:42:00,
2013-03-05 01:52:00,33.0,26.0,-100.00,WNW,288,0.0,2.0,74,0.00,,,0.00,0.000000,,2013-03-05 06:52:00,
2013-03-05 02:01:00,33.0,26.0,-100.00,WNW,288,0.0,2.0,74,0.00,,,0.00,0.000000,,2013-03-05 07:01:00,
2013-03-05 02:22:00,36.0,28.0,-100.00,WSW,238,2.0,4.0,73,0.00,,,0.00,0.000000,,2013-03-05 07:22:00,
2013-03-05 02:32:00,36.0,28.0,-100.00,WSW,238,2.0,4.0,73,0.00,,,0.00,0.000000,,2013-03-05 07:32:00,
2013-03-05 02:42:00,36.0,28.0,-100.00,WSW,238,2.0,4.0,73,0.00,,,0.00,0.000000,,2013-03-05 07:42:00,
2013-03-05 02:52:00,36.0,28.0,-100.00,WSW,238,2.0,4.0,73,0.00,,,0.00,0.000000,,2013-03-05 07:52:00,
2013-03-05 03:02:00,36.0,28.0,-100.00,WSW,238,2.0,4.0,73,0.00,,,0.00,0.000000,,2013-03-05 08:02:00,
2013-03-05 04:32:00,32.0,27.0,-100.00,SW,215,1.0,2.0,82,-99.99,,,0.00,0.000000,,2013-03-05 09:32:00,
2013-03-05 04:43:00,32.0,27.0,-100.00,SW,215,1.0,2.0,82,-99.99,,,0.00,0.000000,,2013-03-05 09:43:00,
2013-03-05 04:52:00,32.0,27.0,-100.00,SW,215,1.0,2.0,82,-99.99,,,0.00,0.000000,,2013-03-05 09:52:00,
2013-03-05 05:01:00,32.0,27.0,-100.00,SW,215,1.0,2.0,82,-99.99,,,0.00,0.000000,,2013-03-05 10:01:00,
2013-03-05 05:22:00,31.0,26.0,-100.00,East,90,1.0,3.0,80,0.00,,,0.00,0.000000,,2013-03-05 10:22:00,
2013-03-05 05:32:00,31.0,26.0,-100.00,East,90,1.0,3.0,80,0.00,,,0.00,0.000000,,2013-03-05 10:32:00,
2013-03-05 05:42:00,31.0,26.0,-100.00,East,90,1.0,3.0,80,0.00,,,0.00,0.000000,,2013-03-05 10:42:00,
2013-03-05 05:52:00,31.0,26.0,-100.00,East,90,1.0,3.0,80,0.00,,,0.00,0.000000,,2013-03-05 10:52:00,
2013-03-05 06:02:00,31.0,26.0,-100.00,East,90,1.0,3.0,80,0.00,,,0.00,0.000000,,2013-03-05 11:02:00,
2013-03-05 06:32:00,31.0,26.0,-100.00,WNW,300,1.0,2.0,82,0.00,,,0.00,0.000000,,2013-03-05 11:32:00,
2013-03-05 06:42:00,31.0,26.0,-100.00,WNW,300,1.0,2.0,82,0.00,,,0.00,0.000000,,2013-03-05 11:42:00,
2013-03-05 06:52:00,31.0,26.0,-100.00,WNW,300,1.0,2.0,82,0.00,,,0.00,0.000000,,2013-03-05 11:52:00,
2013-03-05 07:02:00,31.0,26.0,-100.00,WNW,300,1.0,2.0,82,0.00,,,0.00,0.000000,,2013-03-05 12:02:00,
2013-03-05 07:32:00,33.0,28.0,-100.00,SW,236,2.0,3.0,81,0.00,,,0.00,2.000000,,2013-03-05 12:32:00,
2013-03-05 07:42:00,33.0,28.0,-100.00,SW,236,2.0,3.0,81,0.00,,,0.00,2.000000,,2013-03-05 12:42:00,
2013-03-05 07:53:00,33.0,28.0,-100.00,SW,236,2.0,3.0,81,0.00,,,0.00,2.000000,,2013-03-05 12:53:00,
2013-03-05 08:02:00,33.0,28.0,-100.00,SW,236,2.0,3.0,81,0.00,,,0.00,2.000000,,2013-03-05 13:02:00,
2013-03-05 08:32:00,39.0,27.0,-100.00,SW,223,2.0,4.0,63,0.00,,,0.00,37.000000,,2013-03-05 13:32:00,
2013-03-05 08:42:00,39.0,27.0,-100.00,SW,223,2.0,4.0,63,0.00,,,0.00,37.000000,,2013-03-05 13:42:00,
2013-03-05 08:52:00,39.0,27.0,-100.00,SW,223,2.0,4.0,63,0.00,,,0.00,37.000000,,2013-03-05 13:52:00,
2013-03-05 09:02:00,39.0,27.0,-100.00,SW,223,2.0,4.0,63,0.00,,,0.00,37.000000,,2013-03-05 14:02:00,
2013-03-05 09:32:00,40.0,30.0,-100.00,SW,230,2.0,4.0,68,0.00,,,0.00,46.000000,,2013-03-05 14:32:00,
2013-03-05 09:42:00,40.0,30.0,-100.00,SW,230,2.0,4.0,68,0.00,,,0.00,46.000000,,2013-03-05 14:42:00,
2013-03-05 09:52:00,40.0,30.0,-100.00,SW,230,2.0,4.0,68,0.00,,,0.00,46.000000,,2013-03-05 14:52:00,
2013-03-05 10:02:00,40.0,30.0,-100.00,SW,230,2.0,4.0,68,0.00,,,0.00,46.000000,,2013-03-05 15:02:00,
2013-03-05 10:32:00,42.0,30.0,-100.00,NW,315,2.0,4.0,62,0.00,,,0.00,57.000000,,2013-03-05 15:32:00,
2013-03-05 10:42:00,42.0,30.0,-100.00,NW,315,2.0,4.0,62,0.00,,,0.00,57.000000,,2013-03-05 15:42:00,
2013-03-05 10:52:00,42.0,30.0,-100.00,NW,315,2.0,4.0,62,0.00,,,0.00,57.000000,,2013-03-05 15:52:00,
2013-03-05 11:02:00,42.0,30.0,-100.00,NW,315,2.0,4.0,62,0.00,,,0.00,57.000000,,2013-03-05 16:02:00,
2013-03-05 11:32:00,42.0,34.0,-100.00,WNW,282,1.0,3.0,72,0.00,,,0.00,54.000000,,2013-03-05 16:32:00,
2013-03-05 11:42:00,42.0,34.0,-100.00,WNW,282,1.0,3.0,72,0.00,,,0.00,54.000000,,2013-03-05 16:42:00,
2013-03-05 11:52:00,42.0,34.0,-100.00,WNW,282,1.0,3.0,72,0.00,,,0.00,54.000000,,2013-03-05 16:52:00,
2013-03-05 12:01:00,42.0,34.0,-100.00,WNW,282,1.0,3.0,72,0.00,,,0.00,54.000000,,2013-03-05 17:01:00,
2013-03-05 12:32:00,41.0,39.0,-100.00,SSE,167,2.0,3.0,93,0.06,,,0.06,57.000000,,2013-03-05 17:32:00,
2013-03-05 12:42:00,41.0,39.0,-100.00,SSE,167,2.0,3.0,93,0.06,,,0.06,57.000000,,2013-03-05 17:42:00,
2013-03-05 12:53:00,41.0,39.0,-100.00,SSE,167,2.0,3.0,93,0.06,,,0.06,57.000000,,2013-03-05 17:53:00,
2013-03-05 13:02:00,41.0,39.0,-100.00,SSE,167,2.0,3.0,93,0.06,,,0.06,57.000000,,2013-03-05 18:02:00,
2013-03-05 13:32:00,42.0,41.0,-100.00,SSW,204,3.0,4.0,97,0.07,,,0.13,54.000000,,2013-03-05 18:32:00,
2013-03-05 13:42:00,42.0,41.0,-100.00,SSW,204,3.0,4.0,97,0.07,,,0.13,54.000000,,2013-03-05 18:42:00,
2013-03-05 13:53:00,42.0,41.0,-100.00,SSW,204,3.0,4.0,97,0.07,,,0.13,54.000000,,2013-03-05 18:53:00,
2013-03-05 14:01:00,42.0,41.0,-100.00,SSW,204,3.0,4.0,97,0.07,,,0.13,54.000000,,2013-03-05 19:01:00,
2013-03-05 14:32:00,44.0,43.0,-100.00,SSW,210,3.0,6.0,98,0.01,,,0.14,92.000000,,2013-03-05 19:32:00,
2013-03-05 14:42:00,44.0,43.0,-100.00,SSW,210,3.0,6.0,98,0.01,,,0.14,92.000000,,2013-03-05 19:42:00,
2013-03-05 14:52:00,44.0,43.0,-100.00,SSW,210,3.0,6.0,98,0.01,,,0.14,92.000000,,2013-03-05 19:52:00,
2013-03-05 15:01:00,44.0,43.0,-100.00,SSW,210,3.0,6.0,98,0.01,,,0.14,92.000000,,2013-03-05 20:01:00,
2013-03-05 15:32:00,47.0,45.0,-100.00,SW,221,3.0,7.0,93,0.00,,,0.14,194.000000,,2013-03-05 20:32:00,
2013-03-05 15:42:00,47.0,45.0,-100.00,SW,221,3.0,7.0,93,0.00,,,0.14,194.000000,,2013-03-05 20:42:00,
2013-03-05 15:52:00,47.0,45.0,-100.00,SW,221,3.0,7.0,93,0.00,,,0.14,194.000000,,2013-03-05 20:52:00,
2013-03-05 16:02:00,47.0,45.0,-100.00,SW,221,3.0,7.0,93,0.00,,,0.14,194.000000,,2013-03-05 21:02:00,
2013-03-05 16:32:00,47.0,44.0,-100.00,North,358,2.0,4.0,90,0.01,,,0.15,110.000000,,2013-03-05 21:32:00,
2013-03-05 16:42:00,47.0,44.0,-100.00,North,358,2.0,4.0,90,0.01,,,0.15,110.000000,,2013-03-05 21:42:00,
2013-03-05 16:52:00,47.0,44.0,-100.00,North,358,2.0,4.0,90,0.01,,,0.15,110.000000,,2013-03-05 21:52:00,
2013-03-05 17:01:00,47.0,44.0,-100.00,North,358,2.0,4.0,90,0.01,,,0.15,110.000000,,2013-03-05 22:01:00,
2013-03-05 17:32:00,47.0,45.0,-100.00,NE,47,1.0,2.0,93,0.00,,,0.15,64.000000,,2013-03-05 22:32:00,
2013-03-05 17:42:00,47.0,45.0,-100.00,NE,47,1.0,2.0,93,0.00,,,0.15,64.000000,,2013-03-05 22:42:00,
2013-03-05 17:52:00,47.0,45.0,-100.00,NE,47,1.0,2.0,93,0.00,,,0.15,64.000000,,2013-03-05 22:52:00,
2013-03-05 18:01:00,47.0,45.0,-100.00,NE,47,1.0,2.0,93,0.00,,,0.15,64.000000,,2013-03-05 23:01:00,
2013-03-05 18:32:00,47.0,45.0,-100.00,East,100,2.0,3.0,93,0.00,,,0.15,35.000000,,2013-03-05 23:32:00,
2013-03-05 18:42:00,47.0,45.0,-100.00,East,100,2.0,3.0,93,0.00,,,0.15,35.000000,,2013-03-05 23:42:00,
2013-03-05 18:53:00,47.0,45.0,-100.00,East,100,2.0,3.0,93,0.00,,,0.15,35.000000,,2013-03-05 23:53:00,
2013-03-05 19:02:00,47.0,45.0,-100.00,East,100,2.0,3.0,93,0.00,,,0.15,35.000000,,2013-03-06 00:02:00,
2013-03-05 19:32:00,47.0,46.0,-100.00,East,83,2.0,4.0,97,0.00,,,0.15,1.000000,,2013-03-06 00:32:00,
2013-03-05 19:42:00,47.0,46.0,-100.00,East,83,2.0,4.0,97,0.00,,,0.15,1.000000,,2013-03-06 00:42:00,
2013-03-05 19:52:00,47.0,46.0,-100.00,East,83,2.0,4.0,97,0.00,,,0.15,1.000000,,2013-03-06 00:52:00,
2013-03-05 20:02:00,47.0,46.0,-100.00,East,83,2.0,4.0,97,0.00,,,0.15,1.000000,,2013-03-06 01:02:00,
2013-03-05 20:32:00,48.0,47.0,-100.00,SE,127,2.0,5.0,97,0.01,,,-99.99,0.000000,,2013-03-06 01:32:00,
2013-03-05 20:42:00,48.0,47.0,-100.00,SE,127,2.0,5.0,97,0.01,,,-99.99,0.000000,,2013-03-06 01:42:00,
2013-03-05 20:52:00,48.0,47.0,-100.00,SE,127,2.0,5.0,97,0.01,,,-99.99,0.000000,,2013-03-06 01:52:00,
2013-03-05 21:01:00,48.0,47.0,-100.00,SE,127,2.0,5.0,97,0.01,,,-99.99,0.000000,,2013-03-06 02:01:00,
2013-03-05 21:22:00,48.0,47.0,-100.00,NNW,346,1.0,7.0,98,0.06,,,0.22,0.000000,,2013-03-06 02:22:00,
2013-03-05 21:32:00,48.0,47.0,-100.00,NNW,346,1.0,7.0,98,0.06,,,0.22,0.000000,,2013-03-06 02:32:00,
2013-03-05 21:42:00,48.0,47.0,-100.00,NNW,346,1.0,7.0,98,0.06,,,0.22,0.000000,,2013-03-06 02:42:00,
2013-03-05 21:52:00,48.0,47.0,-100.00,NNW,346,1.0,7.0,98,0.06,,,0.22,0.000000,,2013-03-06 02:52:00,
2013-03-05 22:02:00,48.0,47.0,-100.00,NNW,346,1.0,7.0,98,0.06,,,0.22,0.000000,,2013-03-06 03:02:00,
2013-03-05 22:22:00,51.0,51.0,-100.00,SW,226,3.0,7.0,99,0.05,,,0.27,0.000000,,2013-03-06 03:22:00,
2013-03-05 22:32:00,51.0,51.0,-100.00,SW,226,3.0,7.0,99,0.05,,,0.27,0.000000,,2013-03-06 03:32:00,
2013-03-05 22:42:00,51.0,51.0,-100.00,SW,226,3.0,7.0,99,0.05,,,0.27,0.000000,,2013-03-06 03:42:00,
2013-03-05 22:53:00,51.0,51.0,-100.00,SW,226,3.0,7.0,99,0.05,,,0.27,0.000000,,2013-03-06 03:53:00,
2013-03-05 23:02:00,51.0,51.0,-100.00,SW,226,3.0,7.0,99,0.05,,,0.27,0.000000,,2013-03-06 04:02:00,
2013-03-05 23:32:00,51.0,50.0,-100.00,WSW,254,4.0,8.0,98,0.00,,,0.27,0.000000,,2013-03-06 04:32:00,
2013-03-05 23:42:00,51.0,50.0,-100.00,WSW,254,4.0,8.0,98,0.00,,,0.27,0.000000,,2013-03-06 04:42:00,
2013-03-05 23:52:00,51.0,50.0,-100.00,WSW,254,4.0,8.0,98,0.00,,,0.27,0.000000,,2013-03-06 04:52:00,